This is the latest recevied weather packets stored in our database for station/object KE8AFF-13. If no packets are shown the sender has not sent any weather packets the latest 10 day(s).
| Time | Temp. | Humidity | Pressure | Rain* | Wind** | Luminosity | Snow |
|---|---|---|---|---|---|---|---|
| 1778107387 | 12.22° C | 58% | 1013.1 hPa | 0 mm | - | 71 W/m² | - |
| 1778107083 | 12.22° C | 59% | 1012.8 hPa | 0 mm | - | 85 W/m² | - |
| 1778106777 | 12.22° C | 58% | 1012.7 hPa | 0 mm | - | 93 W/m² | - |
| 1778106475 | 12.22° C | 58% | 1013.1 hPa | 0 mm | - | 98 W/m² | - |
| 1778106170 | 12.22° C | 57% | 1013 hPa | 0 mm | - | 101 W/m² | - |
| 1778105869 | 12.22° C | 55% | 1013.1 hPa | 0 mm | - | 93 W/m² | - |
| 1778105566 | 12.22° C | 57% | 1013.1 hPa | 0 mm | - | 94 W/m² | - |
| 1778105263 | 12.22° C | 56% | 1013 hPa | 0 mm | - | 105 W/m² | - |
| 1778104958 | 12.22° C | 57% | 1013.1 hPa | 0 mm | - | 93 W/m² | - |
| 1778104655 | 12.22° C | 57% | 1013 hPa | 0 mm | - | 95 W/m² | - |
| 1778104350 | 12.22° C | 56% | 1012.5 hPa | 0 mm | - | 136 W/m² | - |
| 1778104042 | 12.22° C | 58% | 1012.5 hPa | 0 mm | - | 128 W/m² | - |
| 1778103739 | 12.22° C | 56% | 1012.5 hPa | 0 mm | - | 140 W/m² | - |
| 1778103437 | 12.22° C | 57% | 1012.6 hPa | 0 mm | - | 143 W/m² | - |
| 1778103134 | 12.22° C | 55% | 1012.7 hPa | 0 mm | - | 143 W/m² | - |
| 1778102832 | 12.22° C | 55% | 1012.5 hPa | 0 mm | - | 136 W/m² | - |
| 1778102526 | 12.22° C | 56% | 1012.5 hPa | 0 mm | - | 112 W/m² | - |
| 1778102222 | 12.22° C | 56% | 1012.5 hPa | 0 mm | - | 117 W/m² | - |
| 1778101919 | 12.22° C | 57% | 1012.4 hPa | 0 mm | - | 129 W/m² | - |
| 1778101615 | 12.22° C | 57% | 1012.3 hPa | 0 mm | - | 107 W/m² | - |
| 1778101312 | 12.22° C | 57% | 1012.4 hPa | 0 mm | - | 110 W/m² | - |
| 1778101010 | 11.67° C | 57% | 1012.1 hPa | 0 mm | - | 118 W/m² | - |
| 1778100704 | 12.22° C | 55% | 1012.2 hPa | 0 mm | - | 147 W/m² | - |
| 1778100403 | 12.22° C | 56% | 1012.3 hPa | 0 mm | - | 135 W/m² | - |
| 1778100099 | 11.67° C | 55% | 1012.1 hPa | 0 mm | - | 155 W/m² | - |
* Rain latest hour (hover to see other rain measurements)
** Current wind speed in m/s (hover to see current wind gust speed)